Mountain Home, AR

8:54 AM CST on January 22, 2018 (GMT -0600)
Baxter County Regional

Weather History for KBPK - August, 2014

Change the Weather History Date:

Wednesday, August 20, 2014

  Actual Average (KFLP) Record (KFLP)
Temperature  
Mean Temperature 84 °F -  
Max Temperature 97 °F 88 °F 98 °F (2003)
Min Temperature 73 °F 65 °F 53 °F (2015)
Cooling Degree Days 20    
Growing Degree Days 34 (Base 50)    
Moisture  
Dew Point 67 °F    
Average Humidity 61    
Maximum Humidity 87    
Minimum Humidity 30    
Precipitation  
Precipitation 0.00 in - - ()
Sea Level Pressure  
Sea Level Pressure 29.93 in    
Wind  
Wind Speed 5 mph (SW)    
Max Wind Speed 14 mph    
Max Gust Speed 21 mph    
Visibility 9 miles    
Events      
Averages and records for this station are not official NWS values.
T = Trace of Precipitation, MM = Missing Value Source: NWS Daily Summary

Daily Weather History Graph

Daily Weather History Graph

Search for Another Location

Airport or City:

Trip Planner

Search our weather history database for the weather conditions in past years. The results will help you decide how hot, cold, wet, or windy it might be!

Date:

Astronomy

Aug. 20, 2014 Rise Set
Actual Time 6:31 AM CDT 7:54 PM CDT
Civil Twilight 6:04 AM CDT 8:21 PM CDT
Nautical Twilight 5:32 AM CDT 8:53 PM CDT
Astronomical Twilight 4:58 AM CDT 9:27 PM CDT
Moon 2:15 AM CDT (8/20) 4:36 PM CDT (8/20)
Length of Visible Light 14h 16m
Length of Day
13h 22m
Waning Crescent, 20% of the Moon is Illuminated
Aug 20
Waning Crescent
Aug 25
New
Sep 2
First Quarter
Sep 8
Full
Sep 15
Last Quarter

Hourly Weather History & Observations

Time (CDT) Temp. Heat Index Dew Point Humidity Pressure Visibility Wind Dir Wind Speed Gust Speed Precip Events Conditions
12:53 AM 79.0 °F - 70.0 °F 74% 29.86 in 9.0 mi SW 5.8 mph - N/A   Clear
1:53 AM 78.1 °F - 70.0 °F 76% 29.87 in 9.0 mi WSW 3.5 mph - N/A   Clear
2:53 AM 75.9 °F - 70.0 °F 82% 29.87 in 9.0 mi Calm Calm - N/A   Clear
3:53 AM 75.0 °F - 70.0 °F 84% 29.88 in 9.0 mi Calm Calm - N/A   Clear
4:53 AM 75.0 °F - 70.0 °F 84% 29.89 in 9.0 mi WSW 4.6 mph - N/A   Clear
5:53 AM 73.9 °F - 70.0 °F 87% 29.89 in 9.0 mi WSW 3.5 mph - N/A   Clear
6:53 AM 75.0 °F - 70.0 °F 84% 29.91 in 7.0 mi WSW 3.5 mph - N/A   Clear
7:53 AM 77.0 °F - 71.1 °F 82% 29.93 in 8.0 mi SW 3.5 mph - N/A   Clear
8:53 AM 80.1 °F 83.2 °F 70.0 °F 71% 29.96 in 8.0 mi SSW 6.9 mph - N/A   Clear
9:53 AM 84.0 °F 89.0 °F 71.1 °F 65% 29.96 in 9.0 mi SW 6.9 mph - N/A   Clear
10:53 AM 88.0 °F 92.9 °F 70.0 °F 55% 29.97 in 9.0 mi SW 6.9 mph - N/A   Clear
11:53 AM 91.9 °F 95.9 °F 68.0 °F 45% 29.96 in 9.0 mi Variable 5.8 mph - N/A   Clear
12:53 PM 93.9 °F 98.6 °F 68.0 °F 43% 29.96 in 9.0 mi SSW 11.5 mph 17.3 mph N/A   Partly Cloudy
1:53 PM 95.0 °F 97.4 °F 64.9 °F 37% 29.96 in 9.0 mi SSW 9.2 mph - N/A   Clear
2:53 PM 96.1 °F 98.8 °F 64.9 °F 36% 29.95 in 8.0 mi SSW 13.8 mph 20.7 mph N/A   Partly Cloudy
3:53 PM 93.9 °F 97.0 °F 66.0 °F 40% 29.93 in 8.0 mi SSW 12.7 mph 18.4 mph N/A   Partly Cloudy
4:53 PM 93.0 °F 95.0 °F 64.9 °F 39% 29.93 in 8.0 mi South 12.7 mph - N/A   Partly Cloudy
5:53 PM 91.9 °F 90.3 °F 55.9 °F 30% 29.92 in 8.0 mi SW 6.9 mph - N/A   Clear
6:53 PM 88.0 °F 87.6 °F 60.1 °F 39% 29.91 in 8.0 mi WSW 5.8 mph - N/A   Clear
7:53 PM 84.0 °F 84.5 °F 62.1 °F 47% 29.92 in 8.0 mi SW 4.6 mph - N/A   Clear
8:53 PM 79.0 °F - 64.0 °F 60% 29.94 in 9.0 mi South 4.6 mph - N/A   Clear
9:53 PM 79.0 °F - 64.9 °F 62% 29.96 in 9.0 mi South 5.8 mph - N/A   Clear
10:53 PM 77.0 °F - 64.9 °F 66% 29.98 in 9.0 mi South 4.6 mph - N/A   Clear
11:53 PM 75.9 °F - 66.0 °F 71% 29.99 in 9.0 mi South 4.6 mph - N/A   Clear